QPF
0.04 0.04 0.05 0.05 0.05 0.05 0.06 0.10 0.10 0.07 0.06 0.07 0.09 0.10 0.11 0.14 0.15 0.15 0.15 0.19 0.16 0.10 0.07 0.06 0.06 0.05 0.04 0.03 0.02 0.02 0.02 0.02 0.02 0.02 0.03 0.04 0.05 0.06
0.04 0.05 0.04 0.04 0.04 0.04 0.05 0.07 0.10 0.09 0.06 0.04 0.05 0.05 0.06 0.07 0.10 0.10 0.11 0.14 0.12 0.11 0.10 0.09 0.08 0.07 0.05 0.04 0.03 0.03 0.02 0.02 0.02 0.02 0.02 0.03 0.04 0.04
0.05 0.07 0.05 0.05 0.05 0.04 0.05 0.06 0.06 0.07 0.05 0.03 0.03 0.03 0.05 0.06 0.07 0.08 0.08 0.08 0.09 0.10 0.11 0.11 0.10 0.08 0.07 0.06 0.06 0.06 0.06 0.05 0.05 0.05 0.04 0.05 0.05 0.05
0.10 0.12 0.10 0.09 0.08 0.06 0.06 0.06 0.05 0.04 0.04 0.04 0.03 0.03 0.04 0.03 0.04 0.05 0.06 0.06 0.08 0.11 0.12 0.13 0.13 0.11 0.09 0.09 0.08 0.07 0.06 0.05 0.05 0.04 0.04 0.04 0.04 0.05
0.12 0.13 0.13 0.11 0.09 0.08 0.07 0.07 0.06 0.05 0.06 0.05 0.04 0.03 0.03 0.03 0.04 0.05 0.06 0.07 0.08 0.11 0.13 0.14 0.13 0.12 0.11 0.09 0.07 0.05 0.05 0.04 0.04 0.04 0.04 0.04 0.05 0.04
0.16 0.18 0.17 0.14 0.12 0.11 0.10 0.09 0.09 0.08 0.07 0.08 0.07 0.08 0.09 0.08 0.08 0.08 0.08 0.07 0.07 0.08 0.09 0.09 0.08 0.08 0.07 0.06 0.05 0.05 0.05 0.05 0.04 0.04 0.04 0.04 0.05 0.06
0.17 0.19 0.19 0.17 0.15 0.12 0.11 0.10 0.10 0.10 0.09 0.09 0.09 0.10 0.11 0.12 0.12 0.11 0.10 0.09 0.08 0.07 0.06 0.06 0.07 0.06 0.06 0.06 0.06 0.06 0.06 0.07 0.07 0.07 0.06 0.06 0.07 0.08
0.15 0.15 0.14 0.12 0.10 0.09 0.08 0.07 0.07 0.08 0.09 0.08 0.07 0.06 0.06 0.06 0.06 0.06 0.07 0.07 0.09 0.11 0.09 0.08 0.08 0.08 0.06 0.05 0.06 0.05 0.06 0.07 0.08 0.09 0.09 0.08 0.08 0.08
0.04 0.05 0.05 0.04 0.04 0.04 0.06 0.05 0.04 0.03 0.03 0.03 0.03 0.03 0.03 0.03 0.03 0.04 0.04 0.05 0.07 0.10 0.10 0.12 0.12 0.12 0.10 0.09 0.09 0.07 0.07 0.07 0.08 0.09 0.09 0.08 0.08 0.08
0.01 0.01 0.01 0.01 0.02 0.03 0.03 0.02 0.02 0.02 0.02 0.02 0.02 0.01 0.01 0.01 0.01 0.02 0.03 0.04 0.05 0.06 0.08 0.11 0.10 0.09 0.09 0.10 0.11 0.10 0.10 0.10 0.10 0.10 0.09 0.08 0.07 0.07
0.01 0.01 0.01 0.01 0.02 0.03 0.03 0.03 0.02 0.02 0.03 0.03 0.03 0.02 0.02 0.02 0.02 0.02 0.02 0.03 0.03 0.04 0.05 0.06 0.08 0.09 0.09 0.08 0.08 0.07 0.06 0.05 0.05 0.05 0.05 0.06 0.07 0.06
0.01 0.01 0.01 0.01 0.01 0.02 0.02 0.04 0.03 0.02 0.03 0.04 0.04 0.04 0.04 0.04 0.04 0.03 0.03 0.03 0.04 0.05 0.06 0.08 0.09 0.09 0.10 0.08 0.06 0.05 0.04 0.04 0.04 0.03 0.03 0.03 0.03 0.03
0.01 0.00 0.00 0.00 0.01 0.03 0.04 0.04 0.03 0.03 0.03 0.03 0.03 0.03 0.03 0.04 0.04 0.04 0.05 0.05 0.05 0.06 0.07 0.07 0.08 0.08 0.07 0.06 0.04 0.03 0.03 0.02 0.02 0.02 0.02 0.02 0.01 0.01
0.01 0.01 0.01 0.01 0.03 0.03 0.03 0.03 0.04 0.03 0.03 0.03 0.02 0.02 0.03 0.03 0.04 0.06 0.08 0.09 0.09 0.09 0.10 0.09 0.09 0.08 0.06 0.05 0.04 0.02 0.02 0.02 0.02 0.01 0.01 0.01 0.00 0.01
0.01 0.01 0.01 0.01 0.02 0.02 0.02 0.03 0.03 0.02 0.02 0.02 0.02 0.03 0.04 0.05 0.06 0.07 0.07 0.08 0.09 0.09 0.08 0.07 0.06 0.05 0.04 0.04 0.03 0.02 0.02 0.02 0.02 0.01 0.01 0.01 0.01 0.01
0.01 0.01 0.01 0.01 0.01 0.01 0.01 0.01 0.01 0.02 0.03 0.05 0.07 0.08 0.10 0.09 0.08 0.07 0.07 0.08 0.07 0.06 0.05 0.03 0.03 0.03 0.03 0.02 0.02 0.02 0.02 0.02 0.01 0.01 0.01 0.01 0.01 0.02
0.02 0.02 0.01 0.01 0.01 0.00 0.00 0.01 0.02 0.03 0.05 0.06 0.07 0.07 0.07 0.06 0.05 0.05 0.05 0.05 0.04 0.04 0.03 0.02 0.02 0.02 0.01 0.02 0.02 0.01 0.01 0.01 0.01 0.01 0.01 0.01 0.01 0.01
0.01 0.01 0.01 0.01 0.01 0.01 0.01 0.02 0.03 0.03 0.04 0.04 0.03 0.03 0.03 0.03 0.03 0.03 0.03 0.03 0.03 0.03 0.03 0.02 0.02 0.02 0.01 0.01 0.01 0.01 0.01 0.01 0.01 0.01 0.01 0.01 0.01 0.01
0.01 0.01 0.01 0.01 0.01 0.01 0.01 0.01 0.01 0.02 0.02 0.02 0.02 0.03 0.03 0.03 0.03 0.03 0.03 0.03 0.04 0.04 0.03 0.03 0.02 0.01 0.01 0.01 0.01 0.01 0.01 0.01 0.00 0.00 0.00 0.00 0.01 0.01
0.01 0.01 0.00 0.00 0.00 0.00 0.00 0.00 0.00 0.01 0.01 0.01 0.02 0.02 0.02 0.02 0.03 0.03 0.03 0.03 0.03 0.03 0.03 0.02 0.01 0.01 0.01 0.01 0.01 0.00 0.00 0.00 0.00 0.00 0.00 0.00 0.00 0.01
0.00 0.00 0.00 0.00 0.00 0.00 0.00 0.00 0.00 0.00 0.00 0.00 0.00 0.01 0.01 0.01 0.02 0.02 0.02 0.02 0.01 0.01 0.01 0.01 0.01 0.01 0.00 0.01 0.01 0.00 0.00 0.00 0.00 0.00 0.00 0.00 0.00 0.00
0.00 0.00 0.00 0.00 0.00 0.00 0.00 0.00 0.00 0.00 0.00 0.00 0.01 0.01 0.01 0.01 0.01 0.01 0.01 0.01 0.01 0.01 0.01 0.01 0.01 0.01 0.00 0.00 0.00 0.00 0.00 0.00 0.00 0.00 0.00 0.00 0.00 0.00
0.00 0.00 0.00 0.00 0.00 0.00 0.00 0.00 0.00 0.00 0.00 0.01 0.01 0.01 0.00 0.00 0.00 0.01 0.01 0.01 0.01 0.01 0.01 0.01 0.01 0.00 0.00 0.00 0.00 0.00 0.00 0.00 0.00 0.00 0.00 0.00 0.00 0.00
MSLP
1019.15 1019.39 1019.65 1019.90 1020.13 1020.32 1020.47 1020.59 1020.70 1020.82 1020.95 1021.12 1021.30 1021.49 1021.66 1021.79 1021.87 1021.90 1021.90 1021.87 1021.83 1021.81 1021.79 1021.79 1021.79 1021.75 1021.68 1021.56 1021.37 1021.15 1020.92 1020.70 1020.53 1020.43 1020.42 1020.50 1020.65 1020.86
1019.42 1019.62 1019.83 1020.02 1020.18 1020.31 1020.43 1020.54 1020.67 1020.83 1021.05 1021.31 1021.60 1021.89 1022.16 1022.38 1022.53 1022.60 1022.62 1022.59 1022.55 1022.51 1022.47 1022.46 1022.44 1022.42 1022.37 1022.27 1022.12 1021.94 1021.74 1021.55 1021.40 1021.30 1021.28 1021.35 1021.48 1021.67
1019.80 1019.97 1020.12 1020.24 1020.32 1020.38 1020.43 1020.50 1020.62 1020.81 1021.07 1021.41 1021.80 1022.20 1022.57 1022.88 1023.11 1023.25 1023.31 1023.30 1023.26 1023.21 1023.16 1023.14 1023.12 1023.11 1023.07 1023.01 1022.91 1022.77 1022.62 1022.47 1022.34 1022.27 1022.25 1022.31 1022.43 1022.59
1020.28 1020.43 1020.54 1020.59 1020.59 1020.57 1020.54 1020.56 1020.65 1020.83 1021.12 1021.51 1021.96 1022.44 1022.90 1023.30 1023.61 1023.81 1023.92 1023.94 1023.92 1023.86 1023.82 1023.79 1023.77 1023.76 1023.75 1023.72 1023.66 1023.58 1023.47 1023.37 1023.28 1023.23 1023.22 1023.28 1023.38 1023.52
1020.84 1020.99 1021.07 1021.08 1021.02 1020.93 1020.84 1020.79 1020.83 1020.99 1021.27 1021.67 1022.16 1022.68 1023.20 1023.66 1024.03 1024.29 1024.43 1024.49 1024.48 1024.44 1024.40 1024.36 1024.35 1024.35 1024.36 1024.36 1024.34 1024.29 1024.23 1024.17 1024.12 1024.09 1024.10 1024.16 1024.25 1024.38
1021.45 1021.62 1021.70 1021.69 1021.60 1021.47 1021.32 1021.23 1021.22 1021.33 1021.58 1021.95 1022.43 1022.96 1023.49 1023.98 1024.38 1024.67 1024.85 1024.93 1024.94 1024.92 1024.88 1024.85 1024.84 1024.85 1024.87 1024.89 1024.89 1024.88 1024.86 1024.83 1024.81 1024.80 1024.83 1024.89 1024.97 1025.08
1022.09 1022.28 1022.38 1022.38 1022.29 1022.14 1021.98 1021.84 1021.79 1021.85 1022.05 1022.37 1022.81 1023.30 1023.81 1024.28 1024.68 1024.97 1025.17 1025.27 1025.29 1025.28 1025.25 1025.23 1025.23 1025.24 1025.27 1025.30 1025.32 1025.34 1025.33 1025.33 1025.32 1025.33 1025.36 1025.41 1025.49 1025.58
1022.70 1022.92 1023.05 1023.09 1023.02 1022.89 1022.73 1022.58 1022.50 1022.51 1022.64 1022.90 1023.26 1023.69 1024.14 1024.56 1024.93 1025.21 1025.39 1025.50 1025.53 1025.53 1025.51 1025.50 1025.51 1025.53 1025.56 1025.60 1025.63 1025.65 1025.65 1025.65 1025.64 1025.65 1025.67 1025.72 1025.78 1025.85
1023.23 1023.48 1023.65 1023.73 1023.71 1023.62 1023.48 1023.34 1023.24 1023.22 1023.30 1023.48 1023.76 1024.10 1024.47 1024.82 1025.13 1025.37 1025.54 1025.64 1025.68 1025.69 1025.68 1025.68 1025.69 1025.72 1025.75 1025.78 1025.81 1025.82 1025.82 1025.81 1025.79 1025.78 1025.79 1025.81 1025.86 1025.91
1023.65 1023.91 1024.12 1024.24 1024.28 1024.24 1024.15 1024.04 1023.95 1023.91 1023.94 1024.06 1024.25 1024.50 1024.78 1025.06 1025.30 1025.49 1025.63 1025.71 1025.75 1025.76 1025.77 1025.78 1025.79 1025.82 1025.85 1025.87 1025.89 1025.88 1025.86 1025.82 1025.78 1025.75 1025.73 1025.73 1025.75 1025.78
1023.93 1024.21 1024.44 1024.61 1024.71 1024.73 1024.69 1024.61 1024.54 1024.49 1024.50 1024.56 1024.69 1024.86 1025.06 1025.26 1025.44 1025.58 1025.68 1025.74 1025.77 1025.79 1025.80 1025.81 1025.83 1025.85 1025.87 1025.88 1025.88 1025.85 1025.80 1025.74 1025.67 1025.61 1025.56 1025.53 1025.52 1025.53
1024.11 1024.39 1024.64 1024.85 1024.99 1025.06 1025.07 1025.04 1024.99 1024.95 1024.94 1024.97 1025.05 1025.16 1025.29 1025.43 1025.55 1025.65 1025.72 1025.76 1025.78 1025.79 1025.80 1025.81 1025.83 1025.84 1025.85 1025.84 1025.81 1025.75 1025.68 1025.59 1025.49 1025.40 1025.32 1025.27 1025.24 1025.23
1024.22 1024.50 1024.76 1024.99 1025.16 1025.27 1025.32 1025.32 1025.30 1025.28 1025.27 1025.29 1025.33 1025.40 1025.49 1025.58 1025.66 1025.72 1025.76 1025.78 1025.79 1025.80 1025.80 1025.80 1025.81 1025.81 1025.80 1025.77 1025.72 1025.64 1025.54 1025.42 1025.30 1025.19 1025.09 1025.01 1024.96 1024.94
1024.31 1024.58 1024.85 1025.09 1025.28 1025.41 1025.48 1025.51 1025.51 1025.50 1025.50 1025.51 1025.55 1025.60 1025.66 1025.72 1025.78 1025.82 1025.84 1025.84 1025.84 1025.83 1025.82 1025.81 1025.80 1025.79 1025.76 1025.71 1025.64 1025.54 1025.42 1025.29 1025.15 1025.01 1024.90 1024.81 1024.74 1024.70
1024.41 1024.69 1024.95 1025.18 1025.37 1025.50 1025.59 1025.63 1025.64 1025.65 1025.66 1025.67 1025.71 1025.76 1025.81 1025.87 1025.91 1025.94 1025.95 1025.94 1025.93 1025.91 1025.88 1025.86 1025.83 1025.80 1025.76 1025.69 1025.60 1025.49 1025.36 1025.21 1025.06 1024.91 1024.78 1024.68 1024.60 1024.54
1024.54 1024.81 1025.07 1025.29 1025.46 1025.58 1025.66 1025.70 1025.72 1025.74 1025.76 1025.79 1025.83 1025.89 1025.95 1026.01 1026.05 1026.08 1026.09 1026.08 1026.06 1026.02 1025.99 1025.95 1025.91 1025.86 1025.80 1025.72 1025.62 1025.50 1025.36 1025.20 1025.04 1024.89 1024.74 1024.62 1024.52 1024.45
1024.68 1024.95 1025.19 1025.39 1025.54 1025.65 1025.71 1025.74 1025.76 1025.78 1025.81 1025.86 1025.92 1025.99 1026.07 1026.14 1026.19 1026.23 1026.24 1026.23 1026.21 1026.17 1026.13 1026.08 1026.03 1025.97 1025.89 1025.81 1025.70 1025.56 1025.41 1025.25 1025.08 1024.91 1024.75 1024.60 1024.47 1024.37
1024.78 1025.05 1025.28 1025.45 1025.58 1025.66 1025.71 1025.73 1025.75 1025.77 1025.81 1025.88 1025.96 1026.06 1026.15 1026.24 1026.31 1026.36 1026.38 1026.38 1026.36 1026.33 1026.28 1026.23 1026.17 1026.10 1026.02 1025.93 1025.81 1025.67 1025.50 1025.33 1025.14 1024.94 1024.75 1024.57 1024.40 1024.25
1024.81 1025.07 1025.28 1025.43 1025.54 1025.60 1025.64 1025.65 1025.68 1025.71 1025.77 1025.85 1025.96 1026.07 1026.19 1026.30 1026.39 1026.46 1026.49 1026.50 1026.49 1026.46 1026.42 1026.37 1026.31 1026.24 1026.15 1026.05 1025.92 1025.77 1025.59 1025.38 1025.16 1024.93 1024.70 1024.47 1024.25 1024.04
1024.73 1024.97 1025.17 1025.31 1025.41 1025.46 1025.50 1025.52 1025.56 1025.61 1025.69 1025.79 1025.92 1026.05 1026.19 1026.31 1026.42 1026.50 1026.55 1026.57 1026.57 1026.55 1026.52 1026.47 1026.41 1026.34 1026.25 1026.14 1026.00 1025.82 1025.62 1025.39 1025.13 1024.85 1024.57 1024.28 1024.00 1023.72
1024.53 1024.77 1024.95 1025.09 1025.19 1025.25 1025.30 1025.35 1025.40 1025.48 1025.58 1025.71 1025.85 1026.00 1026.15 1026.29 1026.40 1026.49 1026.55 1026.58 1026.59 1026.58 1026.55 1026.51 1026.46 1026.39 1026.29 1026.17 1026.01 1025.81 1025.58 1025.31 1025.00 1024.68 1024.34 1023.99 1023.64 1023.31
1024.25 1024.48 1024.67 1024.81 1024.92 1025.01 1025.08 1025.16 1025.25 1025.36 1025.48 1025.63 1025.79 1025.95 1026.10 1026.23 1026.34 1026.43 1026.49 1026.52 1026.54 1026.53 1026.52 1026.48 1026.43 1026.36 1026.26 1026.12 1025.95 1025.73 1025.46 1025.15 1024.81 1024.43 1024.04 1023.64 1023.25 1022.86
1023.93 1024.16 1024.35 1024.51 1024.65 1024.77 1024.88 1025.00 1025.12 1025.26 1025.41 1025.58 1025.74 1025.89 1026.04 1026.16 1026.26 1026.34 1026.39 1026.42 1026.43 1026.43 1026.41 1026.38 1026.33 1026.26 1026.15 1026.01 1025.82 1025.57 1025.28 1024.95 1024.57 1024.16 1023.74 1023.30 1022.87 1022.45
Thickness
5731 5730 5729 5728 5727 5726 5724 5721 5713 5707 5708 5713 5715 5717 5716 5715 5714 5713 5711 5710 5708 5706 5704 5701 5699 5696 5694 5692 5690 5688 5687 5685 5683 5681 5679 5679 5677 5676
5729 5727 5725 5725 5724 5723 5722 5720 5717 5711 5705 5707 5709 5710 5710 5710 5708 5707 5705 5703 5701 5699 5698 5696 5693 5690 5687 5685 5683 5681 5679 5677 5675 5674 5672 5671 5670 5669
5726 5723 5722 5721 5719 5718 5717 5715 5712 5709 5703 5702 5704 5704 5703 5702 5701 5699 5698 5695 5693 5691 5689 5687 5684 5681 5679 5676 5674 5671 5669 5667 5666 5665 5663 5662 5661 5660
5720 5718 5717 5716 5714 5712 5710 5708 5706 5704 5700 5695 5695 5695 5695 5694 5692 5691 5689 5687 5684 5682 5680 5678 5675 5672 5669 5666 5664 5661 5660 5658 5656 5654 5653 5652 5650 5650
5715 5713 5712 5710 5708 5706 5704 5702 5700 5699 5696 5691 5688 5688 5686 5684 5682 5680 5679 5676 5674 5672 5669 5667 5664 5662 5659 5656 5653 5652 5650 5648 5645 5644 5642 5640 5639 5638
5710 5708 5706 5705 5702 5700 5698 5695 5693 5691 5688 5684 5680 5678 5676 5675 5672 5668 5666 5664 5662 5660 5657 5655 5652 5650 5647 5645 5642 5641 5639 5636 5634 5632 5630 5629 5626 5625
5703 5701 5700 5698 5697 5694 5691 5687 5685 5682 5679 5675 5671 5668 5666 5664 5661 5658 5655 5653 5650 5647 5644 5641 5639 5637 5634 5632 5630 5628 5626 5624 5622 5620 5618 5615 5613 5612
5694 5692 5691 5689 5686 5684 5682 5679 5677 5673 5669 5666 5662 5658 5655 5653 5652 5650 5645 5642 5638 5636 5632 5628 5626 5623 5621 5619 5617 5615 5613 5611 5608 5607 5605 5602 5600 5598
5686 5684 5682 5679 5676 5674 5671 5669 5666 5663 5661 5656 5652 5648 5646 5644 5642 5639 5635 5632 5628 5624 5621 5615 5612 5609 5607 5605 5603 5601 5599 5597 5595 5593 5590 5588 5586 5584
5677 5674 5671 5668 5666 5664 5661 5658 5654 5652 5649 5646 5643 5639 5638 5636 5634 5631 5627 5622 5617 5614 5611 5604 5600 5597 5595 5592 5589 5587 5585 5583 5581 5579 5576 5574 5572 5569
5667 5664 5661 5658 5656 5654 5651 5647 5644 5641 5638 5636 5634 5631 5628 5626 5624 5621 5616 5611 5605 5601 5598 5594 5589 5585 5582 5579 5576 5574 5571 5569 5567 5565 5563 5561 5558 5556
5657 5654 5651 5648 5646 5644 5640 5637 5633 5629 5627 5625 5623 5620 5617 5615 5613 5610 5605 5599 5593 5589 5586 5583 5577 5573 5569 5566 5563 5561 5559 5556 5554 5551 5549 5547 5545 5542
5647 5643 5641 5639 5637 5634 5631 5628 5624 5621 5617 5614 5611 5608 5606 5603 5600 5597 5594 5589 5583 5578 5576 5572 5566 5562 5557 5553 5551 5549 5546 5544 5541 5539 5536 5534 5531 5529
5637 5634 5631 5629 5627 5625 5622 5619 5616 5612 5608 5603 5599 5596 5592 5589 5587 5585 5582 5578 5574 5569 5566 5562 5556 5551 5546 5541 5538 5536 5534 5532 5529 5526 5524 5522 5519 5517
5629 5626 5623 5620 5617 5615 5612 5609 5606 5601 5597 5592 5587 5583 5580 5578 5576 5573 5569 5565 5562 5558 5554 5550 5546 5541 5536 5531 5526 5523 5521 5519 5517 5515 5513 5510 5507 5505
5619 5616 5614 5611 5608 5604 5601 5597 5594 5590 5586 5580 5575 5572 5569 5566 5562 5559 5554 5550 5546 5543 5541 5538 5535 5530 5525 5520 5516 5512 5510 5507 5506 5504 5502 5499 5497 5494
5610 5606 5603 5599 5595 5591 5588 5584 5581 5578 5574 5569 5564 5560 5556 5553 5549 5545 5541 5537 5532 5528 5525 5525 5522 5519 5515 5511 5506 5502 5500 5497 5495 5493 5491 5488 5486 5485
5600 5594 5590 5586 5582 5578 5574 5571 5568 5565 5561 5557 5553 5549 5545 5541 5537 5533 5529 5525 5520 5516 5514 5511 5509 5506 5503 5501 5498 5494 5491 5488 5486 5484 5481 5478 5476 5476
5589 5583 5579 5575 5571 5567 5563 5560 5556 5553 5550 5547 5543 5539 5535 5531 5527 5523 5519 5515 5511 5507 5504 5502 5498 5494 5490 5488 5488 5488 5484 5480 5477 5475 5473 5470 5468 5469
5579 5574 5570 5566 5562 5558 5554 5550 5546 5543 5540 5536 5533 5529 5525 5522 5518 5514 5510 5506 5502 5499 5495 5493 5490 5487 5484 5481 5479 5480 5480 5475 5471 5468 5465 5463 5462 5462
5569 5565 5562 5558 5554 5550 5546 5542 5538 5534 5530 5527 5523 5520 5517 5513 5509 5506 5502 5499 5495 5491 5487 5485 5485 5484 5480 5476 5473 5472 5473 5472 5468 5464 5461 5457 5454 5453
5561 5558 5554 5551 5547 5543 5539 5534 5530 5526 5522 5519 5515 5512 5509 5505 5502 5498 5495 5491 5487 5484 5481 5480 5479 5477 5473 5469 5466 5465 5464 5465 5465 5462 5460 5456 5451 5448
5554 5550 5547 5543 5539 5535 5531 5527 5522 5518 5514 5511 5508 5505 5501 5498 5495 5491 5488 5484 5481 5478 5475 5473 5471 5469 5466 5464 5461 5459 5459 5457 5456 5455 5455 5455 5453 5451